EW4117 Weather Reports


time (UTC)temp
C
wind
direction
speed
KPH
gust
KPH
rain 1hr
cm
rain 24hr
cm
rain mn
cm
humidity
%
barometer
mb
20260508121610 13 321 6.4 20.9 0.00 0.10 0.00 52 1007.7
20260508121504 13 274 8.0 20.9 0.00 0.10 0.00 50 1007.7
20260508120059 15 37 0.0 17.7 0.00 0.66 0.00 47 1007.9
20260508114556 14 308 1.6 11.3 0.00 0.66 0.00 60 1008.0
20260508113055 13 269 3.2 8.0 0.00 0.66 0.00 57 1008.3
20260508111554 13 305 3.2 14.5 0.00 0.66 0.00 58 1008.4
20260508110055 13 256 1.6 12.9 0.00 0.79 0.00 57 1008.5
20260508104549 12 82 3.2 11.3 0.00 0.79 0.00 58 1008.5
20260508103053 11 300 0.0 11.3 0.00 0.79 0.00 60 1008.7
20260508101547 12 16 4.8 6.4 0.00 0.79 0.00 64 1008.6
20260508100044 11 66 6.4 11.3 0.00 0.79 0.00 66 1008.6
20260508094549 11 360 3.2 11.3 0.00 0.79 0.00 69 1008.6
20260508093041 11 6 3.2 11.3 0.00 0.79 0.00 68 1008.6
20260508091540 11 315 9.7 16.1 0.00 0.79 0.00 69 1008.6
20260508090038 10 248 0.0 6.4 0.00 0.79 0.00 66 1008.6
20260508084536 11 306 9.7 16.1 0.00 0.79 0.00 69 1008.4
20260508083113 11 56 6.4 14.5 0.00 0.79 0.00 67 1008.1
20260508081530 10 170 6.4 12.9 0.00 0.79 0.00 68 1008.3
20260508080025 8 141 1.6 8.0 0.00 0.79 0.00 79 1008.5
20260508074528 7 320 0.0 8.0 0.00 0.79 0.00 82 1008.9
20260508073025 7 294 1.6 6.4 0.00 0.79 0.00 82 1008.8
20260508071524 6 292 0.0 3.2 0.00 0.79 0.00 83 1008.3
20260508070020 6 46 3.2 8.0 0.00 0.79 0.00 83 1008.1
20260508064538 6 64 3.2 6.4 0.00 0.79 0.00 83 1008.0
20260508063018 6 274 0.0 1.6 0.00 0.79 0.00 83 1008.4
20260508061522 6 269 0.0 1.6 0.00 0.79 0.00 83 1008.3
20260508060017 6 262 0.0 4.8 0.00 0.79 0.00 83 1008.4
20260508054515 6 309 0.0 1.6 0.00 0.79 0.00 83 1007.7
20260508053015 6 326 0.0 3.2 0.00 0.79 0.00 82 1007.5
20260508051513 6 281 0.0 6.4 0.00 0.79 0.00 82 1007.7
20260508050014 6 246 0.0 4.8 0.00 0.79 0.00 82 1007.5
20260508044512 6 276 0.0 3.2 0.00 0.79 0.00 82 1007.1
20260508043012 6 312 0.0 3.2 0.00 0.79 0.00 82 1007.0
20260508041514 6 290 0.0 0.0 0.00 0.79 0.00 80 1006.7
20260508040008 6 38 0.0 6.4 0.00 0.79 0.00 78 1006.9
20260508034510 6 323 1.6 4.8 0.00 0.79 0.00 77 1006.8
20260508033005 6 309 0.0 3.2 0.00 0.79 0.00 76 1006.8
20260508031504 7 325 0.0 6.4 0.00 0.79 0.00 74 1006.7
20260508030005 7 36 8.0 19.3 0.00 0.79 0.00 73 1006.5
20260508024606 8 127 12.9 24.1 0.00 0.79 0.00 67 1006.4
20260508023056 7 170 3.2 12.9 0.00 0.79 0.00 68 1006.6
20260508021556 7 193 1.6 11.3 0.00 0.79 0.00 68 1006.4
20260508020054 7 8 1.6 4.8 0.00 0.79 0.00 70 1006.4
20260508014550 7 163 0.0 3.2 0.00 0.79 0.00 69 1006.9
20260508013049 7 16 0.0 9.7 0.00 0.79 0.00 68 1007.0
20260508011559 7 359 0.0 12.9 0.00 0.79 0.00 70 1007.3
20260508010055 7 177 0.0 12.9 0.00 0.79 0.00 68 1007.9
20260508004554 8 126 6.4 16.1 0.00 0.79 0.00 67 1008.0
20260508003042 8 149 8.0 14.5 0.00 0.79 0.00 67 1008.1
20260508001540 8 148 8.0 11.3 0.00 0.79 0.00 68 1008.1
20260508000032 7 141 4.8 8.0 0.00 0.79 0.00 71 1008.0
20260507234530 7 193 1.6 6.4 0.00 0.79 0.00 73 1008.1
20260507233027 7 174 0.0 3.2 0.00 0.79 0.00 75 1008.2
20260507231525 7 173 0.0 0.0 0.00 0.79 0.00 75 1008.4
20260507230023 7 162 0.0 0.0 0.00 0.79 0.00 75 1008.5
20260507224519 7 163 0.0 3.2 0.00 0.79 0.00 75 1008.8
20260507223018 7 216 0.0 0.0 0.00 0.79 0.00 75 1009.0
20260507221516 8 214 0.0 1.6 0.00 0.79 0.00 75 1009.3
20260507220014 8 250 0.0 6.4 0.00 0.79 0.79 75 1009.2
20260507214513 8 234 3.2 6.4 0.00 0.79 0.79 74 1009.2
20260507213010 8 260 0.0 4.8 0.00 0.79 0.79 74 1009.0
20260507211509 9 23 0.0 0.0 0.00 0.79 0.79 72 1008.7
20260507210008 9 317 0.0 0.0 0.00 0.79 0.79 70 1008.5
20260507204507 10 234 0.0 8.0 0.00 0.79 0.79 70 1008.6
20260507203003 9 263 0.0 0.0 0.00 0.79 0.79 71 1008.3
20260507201502 9 202 0.0 0.0 0.00 0.79 0.79 70 1007.9
20260507200100 9 214 0.0 0.0 0.00 0.79 0.79 69 1007.7
20260507194557 9 288 0.0 0.0 0.00 0.79 0.79 68 1007.4
20260507193108 10 288 0.0 0.0 0.00 0.79 0.79 66 1007.2
20260507191559 10 291 0.0 0.0 0.00 0.79 0.79 67 1007.0
20260507184555 10 358 0.0 0.0 0.00 0.79 0.79 66 1006.7
20260507183059 10 15 3.2 12.9 0.00 0.79 0.79 65 1006.4
20260507181553 11 354 3.2 11.3 0.00 0.79 0.79 62 1006.2
20260507180054 11 48 3.2 16.1 0.00 0.79 0.79 60 1005.9
20260507174553 12 47 8.0 12.9 0.00 0.79 0.79 59 1005.8
20260507173055 11 360 4.8 11.3 0.00 0.79 0.79 58 1005.9
20260507171556 12 253 0.0 9.7 0.00 0.79 0.79 59 1005.6
20260507170051 12 52 6.4 14.5 0.00 0.79 0.79 58 1005.4
20260507164549 11 60 9.7 17.7 0.00 0.79 0.79 59 1005.6
20260507163048 11 28 6.4 14.5 0.00 0.79 0.79 60 1005.6
20260507161548 11 344 11.3 24.1 0.00 0.79 0.79 60 1005.3
20260507160057 12 342 14.5 22.5 0.00 0.79 0.79 58 1005.4
20260507154546 12 342 4.8 16.1 0.00 0.79 0.79 57 1005.3
20260507153051 12 352 4.8 11.3 0.00 0.79 0.79 58 1005.4
20260507151545 12 6 9.7 17.7 0.00 0.79 0.79 55 1005.3
20260507150044 12 333 3.2 8.0 0.00 0.79 0.79 56 1005.2
20260507144547 12 37 3.2 9.7 0.00 0.79 0.79 54 1005.4
20260507143042 12 347 6.4 16.1 0.00 0.79 0.79 59 1005.5
20260507141639 11 223 0.0 8.0 0.00 0.79 0.79 58 1005.7
20260507140052 11 340 6.4 14.5 0.00 0.79 0.79 63 1005.7
20260507134534 10 55 6.4 16.1 0.00 0.79 0.79 64 1005.9
20260507133035 10 3 6.4 22.5 0.00 0.79 0.79 68 1005.9
20260507131536 8 3 11.3 19.3 0.05 0.79 0.79 71 1006.1
20260507130038 7 37 8.0 22.5 0.13 0.79 0.79 71 1006.1
20260507124536 7 120 9.7 22.5 0.25 0.79 0.79 73 1006.5
20260507123033 7 108 9.7 16.1 0.51 0.79 0.79 76 1007.0